KUIPER-00060

Last updated on Thu Jul 03 2025 00:02:08 GMT+0000 (Coordinated Universal Time)

1 64520U 25134W 25183.58335648 .00006024 00000+0 17882-3 0 9993 2 64520 51.8778 286.8869 0002779 100.7983 31.8639 15.36193906 2033
UTC large
Height (km)
Speed (km/s)
/
Latitude / Longitude
Inclination (degrees)
Orbital Period (minutes)
Azimuth
Elevation
Range (km)
Doppler Factor

Next 0 passes for location: London (51.5072 / 0.1276)

Sorry there are no passes over London.